FENGYUN 1C DEB

Satellite information

Favourite Embed

Satellite Type and Status

DEBRISIN ORBIT

Key statistics

Satellite FENGYUN 1C DEB at a glance.

Uptime

9715

Days in orbit

Revolutions

≈ 14.2

Per day

Orbit

SSO

Sun Synchronous Orbit

Inclination

98.6

Latest

Satellite identification and parameters

Extended collection of information and parameters for FENGYUN 1C DEB.

Object identification

Identified? True

Debris? True

Object name: FENGYUN 1C DEB

International designator: 1999-025RU

Object number (NORAD): 30115

Object ID (CCSDS): 30115

Country: PEOPLES REPUBLIC OF CHINA (PRC)

Current information (Y/N): Y

RCS size: SMALL

Orbital parameters

Period: 101.425 minutes

Inclination: 98.6232 deg

SMA: 7204.258 km

Apoapsis: 874.995 km

Periapsis: 777.251 km

RAAN: 13.3145 deg

Eccentricy: 0.0067838

Argument of periapsis: 62.9383 deg

Mean anomaly: 8.8203 deg

Mean motion: 14.19772808 rev/day

Mean motion (dot): 0.0000309 rev/day2

B* drag term: 0.0014449 1/REarth

Two-line elements (TLE)

Creation date: Dec. 12, 2025, 7:26 a.m.

Reference frame: TEME

Reference center: EARTH

Epoch: Dec. 12, 2025, 12:14 a.m. UTC

TLE line 0: 0 FENGYUN 1C DEB

TLE line 1: 1 30115U 99025RU 25346.00975255 .00003090 00000-0 14449-2 0 9994

TLE line 2: 2 30115 98.6232 13.3145 0067838 62.9383 8.8203 14.19772808973188

Live tracking on map

Real-time ground track for satellite FENGYUN 1C DEB.

In-orbit conjunctions

A list of the most updated potential collisions computed for object FENGYUN 1C DEB.

Target Orbit TCA Probability of collision Miss distance Type
SL-16 DEB LEO 2025-02-13 13:01:02 0.0003475623 127.0 (m) DEBRIS
CZ-6A DEB SSO 2024-11-11 00:20:51 0.0001264678 164.0 (m) DEBRIS

Associated space launch

Chinese polar orbiting meteorological satellite

FENGYUN 1C DEB was lifted into orbit during the mission ‘Long March 4B | Feng Yun 1C’, on board a Long March 4B space rocket.

The launch took place on May 10, 1999, 1:33 a.m. from Launch Complex 7.

For more information about the launch, click the button.

Launch to space Long March 4B | Feng Yun 1C
Long March 4B | Feng Yun 1C

Agency: N/A

Status: Launch Successful

Launch date: May 10, 1999, 1:33 a.m. UTC

Rocket: Long March 4B

Launch pad: Launch Complex 7

Location: Taiyuan Satellite Launch Center, People's Republic of China

...

Latest news about this satellite

There are no fresh news available about this satellite. Check back as we update our databases every day.


Newsletter sign-up

Weekly statistics, charts and insights to help you stay on top of the space industry.